Dewpoint
56 56 56 57 57 57 57 57 58 58 58 59 59 59 59 59 58 55 27 28 38 50 55 54 55 55 57 60 62 63 55 52 53 47 40 39 38 42 50 54 56 57 58 59 62
56 56 56 56 56 56 57 57 57 58 58 58 58 59 59 59 54 48 40 43 50 55 55 56 59 63 62 62 58 56 55 52 54 50 42 42 40 41 48 53 55 56 58 59 61
55 55 55 56 56 56 56 57 57 57 57 57 58 58 59 59 52 49 54 46 57 56 58 58 59 61 60 60 58 56 53 53 53 49 43 43 43 44 50 51 55 57 57 58 63
55 55 55 55 55 56 56 56 56 56 57 57 58 58 59 56 46 37 50 54 55 55 58 58 60 56 54 50 59 55 55 53 56 48 47 46 44 43 47 52 57 58 58 58 57
54 54 55 55 55 55 55 55 56 56 56 57 57 58 52 43 45 45 52 52 48 53 57 58 57 59 54 53 54 52 50 53 55 52 47 48 45 45 45 54 57 58 57 56 55
54 54 54 54 55 55 55 55 55 55 56 56 57 59 48 39 46 47 55 55 51 55 58 61 61 59 58 57 57 56 54 51 53 48 45 43 47 45 50 55 56 56 56 55 54
54 54 55 54 54 54 54 55 55 55 55 56 58 56 40 27 49 50 55 54 56 57 58 60 62 58 60 57 60 57 55 54 49 48 44 46 46 44 48 55 55 55 55 55 55
53 53 53 54 54 54 54 54 54 54 55 57 58 51 28 38 42 50 53 52 53 54 55 54 61 59 55 51 49 48 49 43 44 46 47 45 42 46 46 52 54 54 54 55 55
54 54 54 54 54 54 54 54 54 55 56 58 51 40 37 39 38 47 50 45 46 48 49 50 55 51 48 49 47 47 40 42 42 44 46 44 41 47 46 47 49 52 53 54 55
54 54 54 54 54 54 53 51 51 51 55 53 45 32 33 35 30 33 47 45 41 41 42 46 44 41 50 49 41 42 42 41 40 40 44 45 42 48 48 47 47 49 51 52 53
54 54 54 54 53 53 50 35 33 33 35 21 29 29 32 35 35 32 36 43 42 42 39 40 39 39 41 47 46 45 45 44 41 41 36 31 33 46 50 49 48 48 49 50 51
54 54 54 54 53 53 50 19 26 29 24 26 27 28 28 30 26 33 38 42 41 39 39 39 38 41 43 43 46 44 44 37 33 37 33 32 31 34 47 50 51 50 49 49 49
53 53 53 53 52 49 37 30 28 28 23 23 25 25 25 26 24 29 37 39 38 38 38 38 40 41 41 43 42 39 37 35 32 32 32 30 29 33 43 47 51 52 51 50 49
53 53 53 52 42 40 29 32 25 30 22 21 20 20 24 25 25 31 35 36 37 36 36 35 37 36 33 33 40 36 36 33 31 30 28 29 26 30 40 42 42 47 52 53 51
53 52 52 51 44 22 27 35 32 27 19 25 13 18 23 23 24 25 30 35 34 35 35 34 33 32 31 31 32 32 33 32 30 28 27 28 26 27 37 39 40 41 44 53 53
52 52 51 50 48 41 41 33 28 22 17 20 11 18 20 23 23 23 24 32 35 33 33 32 33 33 31 31 30 31 30 29 30 28 25 25 27 28 31 33 38 41 42 50 54
51 51 50 49 21 40 33 28 22 20 23 12 11 10 18 18 20 20 19 20 27 29 28 28 29 32 31 29 29 29 28 25 23 23 23 27 25 25 27 36 35 34 37 43 52
50 50 49 48 45 40 30 27 21 25 25 22 13 10 6 6 10 13 14 15 22 27 26 25 24 26 27 28 26 27 27 25 22 23 24 22 17 16 26 32 36 34 39 42 45
49 48 47 45 48 41 27 23 21 26 21 16 16 11 11 9 5 9 12 12 14 22 24 24 24 25 26 25 26 23 25 28 25 21 18 17 17 15 27 37 36 38 40 46 50
44 46 41 43 43 30 26 23 25 21 14 13 15 18 17 17 18 5 6 8 9 17 26 25 23 23 22 24 21 24 25 23 20 17 15 14 14 30 43 43 35 38 38 41 46
46 40 37 40 27 24 15 20 18 13 13 10 9 16 17 17 18 15 9 12 9 8 18 22 21 15 14 14 14 17 15 19 20 18 15 13 18 45 47 47 40 37 42 46 46
43 35 35 27 20 22 13 16 16 13 13 12 11 17 16 17 14 13 15 19 20 24 23 17 9 12 15 19 18 17 17 18 16 15 18 15 21 44 51 59 58 56 58 59 62
35 38 41 26 22 20 19 15 13 11 12 11 10 17 15 13 12 16 17 17 17 20 23 24 22 19 17 19 22 21 22 23 23 22 19 18 27 42 53 57 57 58 61 63 65
43 40 40 29 30 26 25 22 17 16 14 11 10 14 11 11 15 15 16 19 20 20 26 23 22 20 18 19 23 20 22 23 25 24 26 29 32 40 47 52 56 56 58 59 63
45 39 38 35 33 32 30 25 21 15 16 15 11 11 11 11 14 12 27 29 29 30 28 21 18 18 19 20 21 22 22 24 24 28 27 29 34 39 46 51 53 55 54 54 51
42 38 39 36 38 33 29 23 24 17 15 15 19 12 13 16 24 33 33 32 31 31 29 27 22 26 24 27 30 28 29 31 34 34 34 34 38 44 48 50 49 53 53 52 52
43 45 42 36 36 34 32 30 29 27 24 26 31 26 30 32 32 32 32 32 31 29 28 27 26 25 23 29 26 26 26 33 37 41 35 31 39 48 46 47 47 48 53 54 54
Wind_Speed
16 16 16 16 17 17 16 16 16 16 15 15 15 15 15 17 19 3 7 8 8 6 4 5 5 8 10 3 7 1 5 6 4 3 8 10 16 8 11 21 10 13 17 32 32
16 16 17 17 17 18 17 17 16 15 15 15 15 14 15 15 4 8 8 8 9 11 1 3 7 9 6 7 4 3 2 6 8 7 14 13 19 15 11 18 3 14 19 25 31
17 17 17 18 18 18 18 17 17 16 16 15 13 14 14 11 3 4 11 13 7 6 1 4 3 3 6 1 3 2 11 14 23 15 15 17 16 8 19 9 23 29 31 26 32
18 18 18 18 19 19 19 18 17 16 16 15 14 14 14 1 1 0 12 11 9 7 4 4 7 4 4 1 6 5 18 19 12 6 7 12 16 10 10 11 25 31 32 27 30
19 19 19 19 19 20 20 19 17 16 15 13 13 12 2 5 6 8 13 12 10 7 3 2 8 5 6 2 5 8 16 14 14 14 11 12 15 14 14 22 23 30 27 26 24
20 20 20 20 21 21 21 21 19 16 15 12 11 9 3 4 2 17 16 13 9 7 5 9 2 5 5 4 6 7 17 27 20 18 8 11 12 13 16 26 27 31 28 26 26
22 22 22 21 21 22 23 23 22 18 14 11 7 3 2 13 4 17 18 11 11 9 6 11 6 8 10 4 17 15 15 19 23 17 9 9 7 18 27 30 31 30 29 28 30
22 22 23 23 23 24 25 25 24 20 13 9 3 2 8 6 8 12 14 8 12 14 17 13 12 9 6 8 8 13 7 6 2 20 8 13 11 21 28 32 31 30 29 30 31
23 24 24 24 23 24 27 29 24 14 5 5 2 1 10 11 10 21 16 8 15 17 17 18 10 12 5 8 7 3 4 6 17 21 9 14 5 28 29 30 30 30 30 30 30
23 23 23 23 23 25 30 26 5 2 3 5 5 5 7 8 7 11 19 19 10 10 8 14 8 12 3 3 9 8 10 10 7 11 13 19 19 32 29 29 32 30 29 28 29
25 25 24 23 21 20 17 5 4 3 3 9 6 7 8 1 2 10 13 17 11 6 11 9 7 17 24 21 22 13 14 16 28 11 11 9 7 31 33 27 28 28 29 30 31
27 26 26 26 22 18 2 1 6 3 10 15 20 19 25 4 10 17 10 13 11 14 11 10 19 21 22 25 19 16 12 14 8 12 5 7 12 8 29 34 33 34 31 31 28
27 28 29 30 30 2 3 9 13 9 6 12 15 11 11 10 13 20 17 15 9 11 15 12 23 19 16 23 13 13 8 8 4 6 2 4 11 10 15 25 28 28 32 30 32
27 26 27 35 3 8 7 7 16 6 4 7 8 9 7 8 9 13 16 11 7 16 18 15 19 12 12 11 17 10 6 2 7 10 7 3 18 6 7 18 21 24 33 32 31
27 24 23 14 9 5 9 25 19 4 2 2 6 4 11 12 2 13 8 10 15 15 3 16 21 21 21 11 10 9 9 6 5 7 12 5 4 14 6 13 29 28 19 30 33
29 24 19 3 2 12 20 21 5 3 3 6 9 11 12 12 11 2 7 6 14 16 10 21 18 8 11 21 15 12 5 10 7 7 11 22 2 24 12 22 21 29 18 29 31
34 25 10 4 5 7 17 5 2 4 8 5 8 12 20 15 17 12 15 10 14 10 12 16 25 19 13 20 18 4 3 8 11 8 13 10 7 15 23 23 24 18 18 32 33
38 33 7 9 7 7 5 3 6 5 7 9 7 11 11 13 15 19 16 17 11 12 11 11 13 4 8 8 15 20 9 11 10 12 20 7 8 13 21 25 8 6 13 14 26
32 5 5 8 15 3 4 6 6 6 4 14 6 11 5 8 3 13 22 23 19 21 23 10 15 18 15 23 6 17 9 19 7 2 6 6 10 19 21 17 3 12 14 18 21
15 8 7 5 20 8 3 7 6 4 12 8 6 3 2 5 3 17 13 17 18 23 20 19 21 15 28 6 8 6 2 6 1 12 14 8 9 12 31 28 11 18 19 21 22
5 6 4 19 6 6 7 9 7 11 14 8 16 7 3 3 6 3 11 5 7 16 23 16 12 26 6 7 16 13 7 1 3 6 11 13 3 6 16 18 11 12 7 3 9
7 2 6 13 5 3 9 6 4 10 12 12 9 6 5 2 3 5 4 2 10 9 5 5 7 7 11 11 10 2 5 1 1 8 7 9 5 8 11 17 20 26 21 25 27
10 5 2 6 6 9 7 11 9 21 22 6 6 5 4 5 3 2 8 8 12 10 3 5 3 3 8 6 6 5 10 4 1 1 3 2 4 2 9 26 23 23 20 20 17
2 2 5 4 2 4 9 15 15 11 18 18 12 4 6 6 2 5 12 4 16 13 4 2 4 4 5 8 4 9 16 15 2 7 2 8 8 2 10 19 17 18 16 15 15
3 2 4 3 5 9 11 15 21 16 5 13 9 8 4 5 11 11 8 12 11 9 13 5 7 7 9 12 9 8 11 15 8 4 3 3 6 2 3 5 7 9 8 13 11
4 5 8 9 10 9 6 6 18 28 9 16 6 13 11 10 6 3 5 6 4 10 7 7 5 7 9 8 8 7 6 5 6 6 6 9 9 5 3 5 8 7 9 3 3
6 5 1 6 7 6 6 13 17 14 8 0 6 5 10 10 8 5 3 3 7 9 11 2 2 7 4 5 5 1 5 1 8 12 6 3 3 4 5 8 9 11 9 10 15
Wind_Direction
351 347 345 343 343 341 337 335 335 332 329 328 328 327 324 323 315 143 241 213 210 203 195 296 258 269 270 48 56 92 50 342 290 177 151 144 121 133 129 141 163 191 157 164 159
349 346 346 345 341 337 334 333 332 329 329 329 327 324 319 328 313 248 243 203 211 160 176 334 358 43 46 16 36 47 32 251 235 240 170 161 145 141 124 159 139 116 139 147 151
349 346 345 343 337 333 331 330 331 330 328 325 325 319 316 321 318 255 195 203 152 159 258 328 144 93 104 213 86 183 241 262 285 252 177 161 157 128 130 151 153 149 155 154 152
347 344 341 340 334 331 328 327 328 325 324 325 322 319 316 298 14 238 164 127 137 189 181 52 92 61 78 49 96 265 247 241 282 292 150 154 164 151 159 181 156 152 159 164 161
344 340 338 337 331 329 324 321 321 321 319 318 316 323 343 332 258 154 129 136 157 178 167 158 34 114 75 119 284 256 292 263 248 265 137 126 128 152 167 145 147 151 161 169 176
342 337 335 334 330 326 321 318 316 316 311 311 312 322 13 304 159 157 142 154 187 180 188 218 250 134 125 185 199 227 247 277 294 255 198 160 127 119 158 147 151 158 170 174 183
340 336 334 333 328 324 319 314 311 310 303 302 301 297 287 247 186 168 160 177 194 209 226 236 192 194 150 248 227 252 271 278 279 219 211 128 135 168 161 159 163 171 178 180 188
338 334 331 328 326 323 316 311 306 302 294 282 234 169 257 251 176 180 187 214 216 217 228 244 191 209 215 263 279 261 214 249 189 193 214 177 205 177 166 163 173 177 185 189 194
334 332 330 328 328 323 316 308 302 290 230 154 114 124 271 313 180 208 184 210 215 233 239 257 159 223 298 315 325 346 312 218 280 206 196 198 207 177 175 173 177 182 187 196 198
331 329 328 327 327 324 319 306 281 331 159 188 269 306 261 234 203 201 206 216 235 259 272 224 239 252 284 229 284 292 307 295 249 202 188 206 248 172 184 180 184 190 191 199 203
332 330 328 325 326 327 343 1 344 86 192 222 197 246 283 281 291 217 196 212 243 285 277 309 271 263 260 229 246 248 253 269 274 230 209 229 248 180 191 190 190 194 197 201 208
332 330 328 325 321 320 278 285 237 68 302 243 247 243 262 308 296 230 166 186 215 244 270 289 267 256 253 255 248 267 287 303 342 185 199 280 282 260 191 197 196 195 200 205 206
330 330 328 325 320 87 267 251 286 13 291 282 223 234 241 171 236 250 170 196 210 247 262 263 267 309 272 253 255 267 283 323 314 347 301 1 323 342 181 201 204 200 204 203 204
328 329 330 328 335 333 270 286 322 172 312 270 194 236 207 185 271 208 198 183 210 243 264 272 270 279 331 319 251 267 279 29 13 14 312 16 306 280 231 239 221 192 201 204 204
326 328 331 325 302 291 313 328 331 67 352 198 172 173 164 181 187 213 158 187 212 232 225 256 294 315 316 297 337 251 1 20 334 355 340 325 309 289 253 247 242 242 213 203 202
324 325 332 86 261 250 310 316 32 62 267 203 153 171 165 210 232 41 183 194 212 230 244 262 282 275 279 300 298 294 337 2 22 26 313 295 331 299 243 235 241 256 207 206 202
321 315 302 280 251 336 332 18 102 211 320 204 172 165 186 196 231 229 247 247 212 205 246 278 282 288 295 294 304 306 342 309 309 297 273 303 316 276 280 255 241 258 266 196 193
322 315 224 217 252 353 17 90 216 254 258 306 184 162 181 185 223 224 230 239 230 210 225 245 296 222 266 261 287 278 246 241 257 268 283 299 282 294 301 265 248 219 198 186 186
323 326 271 253 211 183 98 199 224 221 317 337 86 168 226 228 218 204 219 232 232 210 218 204 242 269 275 271 227 275 229 228 237 118 272 288 281 299 345 320 286 197 157 154 173
329 326 263 137 146 118 118 242 238 282 351 343 347 122 79 339 311 199 201 236 238 221 200 229 247 254 268 293 255 209 245 224 200 255 274 283 318 327 336 332 281 202 175 160 158
343 337 297 137 115 83 213 241 286 299 340 344 310 273 345 12 5 354 219 296 230 286 209 210 217 264 309 253 282 285 311 341 140 179 247 273 236 329 3 1 5 339 270 90 69
349 272 161 136 131 177 230 232 300 287 308 297 282 261 298 308 315 322 358 270 355 345 57 222 180 228 240 278 266 175 12 42 314 276 238 243 235 2 20 36 37 51 46 59 72
339 279 280 154 213 225 265 261 260 271 275 264 313 346 29 50 342 296 336 316 18 19 22 342 26 354 333 347 27 34 354 16 256 92 241 188 180 13 74 61 59 64 59 68 62
349 334 311 219 164 256 294 289 275 273 266 252 254 202 2 346 19 308 325 330 346 355 269 85 138 157 232 267 265 307 325 326 331 297 210 197 177 273 83 94 89 84 85 74 63
176 290 11 254 277 289 273 262 280 290 261 324 220 199 203 268 310 312 350 335 13 41 5 31 295 271 236 244 268 284 306 322 350 321 238 218 188 180 71 78 78 107 99 122 130
23 1 347 301 289 302 320 358 260 271 256 289 317 224 194 226 185 129 33 35 314 345 16 13 323 359 330 324 32 360 3 58 99 113 118 150 166 213 161 68 54 26 41 326 281
334 336 85 287 325 350 357 334 311 301 290 124 56 114 86 126 117 91 100 312 287 314 321 305 20 343 272 332 350 329 325 56 72 15 323 352 48 145 63 50 23 8 345 291 270